Location: Stara Lesna
(49.1528°N, 20.2911°E)
Time: 10:10:57
(UTC+02:00)

Cosmos 1190 Rocket - Pass Details

Date: 13 July 2020
Orbit: 756 x 781 km, 74.1° (Epoch: 05 August)

Event Time Altitude Azimuth Distance (km) Brightness Sun altitude
Exits shadow 03:02:31 18° 207° (SSW) 1,799 5.3 -12.7°
Maximum altitude 03:06:26 80° 293° (WNW) 783 4.0 -12.4°
Drops below altitude 10° 03:11:43 10° 22° (NNE) 2,321 7.9 -11.9°
Sets 03:14:07 0° 23° (NNE) 3,256 9.1 -11.7°
